Location: Kalberh�ni
(46.4610°N, 7.2453°E)
Time: 05:20:32
(UTC+00:00)

Cosmos 1802 Rocket - Pass Details

Date: 24 October 2021
Orbit: 955 x 1010 km, 82.9° (Epoch: 05 December)

Event Time Altitude Azimuth Distance (km) Brightness Sun altitude
Rises 18:28:51 0° 163° (SSE) 3,622 6.8 -21.3°
Enters shadow 18:29:26 - 162° (SSE) 3,409 6.6 -21.4°
Exits shadow 18:39:49 27° 40° (NE) 1,766 5.0 -23.2°
Drops below altitude 10° 18:42:48 10° 22° (NNE) 2,702 6.2 -23.7°
Sets 18:45:26 0° 15° (NNE) 3,658 6.9 -24.2°
